• In Hungary
  • List of Countries
  • For 7 days
  • Water Temperature
  • Satellite Maps
  • Weather Map
  • News
  • Weather Widgets
  • user-avatar
    Login

    Hourly Weather Verhojansk

    Today, 20 June, Wednesday

    Time Temperature Precipitation Wind Pressure Humidity
    00:00 +16°C° 0 mm 2 mps 720 mmHg 57%
    01:00 +15°C° 0 mm 2 mps 720 mmHg 58%
    02:00 +15°C° 0 mm 2 mps 721 mmHg 60%
    03:00 +16°C° 0 mm 1 mps 721 mmHg 61%
    04:00 +17°C° 0 mm 2 mps 721 mmHg 57%
    05:00 +19°C° 0 mm 2 mps 721 mmHg 52%
    06:00 +20°C° 0 mm 2 mps 721 mmHg 48%
    07:00 +23°C° 0 mm 2 mps 721 mmHg 43%
    08:00 +24°C° 0 mm 3 mps 721 mmHg 39%
    09:00 +25°C° 0 mm 3 mps 721 mmHg 35%
    10:00 +26°C° 0 mm 3 mps 720 mmHg 33%
    11:00 +27°C° 0 mm 3 mps 720 mmHg 31%
    12:00 +27°C° 0 mm 3 mps 720 mmHg 29%
    13:00 +27°C° 0 mm 3 mps 720 mmHg 29%
    14:00 +27°C° 0 mm 3 mps 719 mmHg 29%
    15:00 +27°C° 0 mm 2 mps 719 mmHg 29%
    16:00 +26°C° 0 mm 2 mps 719 mmHg 30%
    17:00 +26°C° 0 mm 2 mps 719 mmHg 32%
    18:00 +26°C° 0 mm 2 mps 719 mmHg 34%
    19:00 +24°C° 0.1 mm 2 mps 719 mmHg 42%
    20:00 +21°C° 0.1 mm 3 mps 719 mmHg 50%
    21:00 +19°C° 0.1 mm 4 mps 719 mmHg 58%
    22:00 +18°C° 0.1 mm 3 mps 719 mmHg 62%
    23:00 +17°C° 0.1 mm 2 mps 719 mmHg 66%

    Tomorrow, 21 June, Thursday

    Time Temperature Precipitation Wind Pressure Humidity
    00:00 +16°C° 0.1 mm 1 mps 719 mmHg 70%
    01:00 +16°C° 0.1 mm 1 mps 719 mmHg 70%
    02:00 +15°C° 0.1 mm 0 mps 719 mmHg 71%
    03:00 +14°C° 0.1 mm 0 mps 719 mmHg 72%
    04:00 +16°C° 0 mm 0 mps 719 mmHg 66%
    05:00 +19°C° 0 mm 1 mps 719 mmHg 60%
    06:00 +21°C° 0 mm 1 mps 719 mmHg 55%
    07:00 +22°C° 0 mm 1 mps 719 mmHg 51%
    08:00 +23°C° 0 mm 1 mps 719 mmHg 47%
    09:00 +24°C° 0 mm 1 mps 719 mmHg 43%
    10:00 +25°C° 0 mm 1 mps 719 mmHg 39%
    11:00 +26°C° 0 mm 1 mps 719 mmHg 36%
    12:00 +27°C° 0 mm 1 mps 719 mmHg 33%
    13:00 +27°C° 0 mm 1 mps 719 mmHg 31%
    14:00 +27°C° 0 mm 1 mps 719 mmHg 30%
    15:00 +28°C° 0 mm 2 mps 719 mmHg 28%
    16:00 +27°C° 0 mm 2 mps 719 mmHg 29%
    17:00 +27°C° 0 mm 2 mps 719 mmHg 30%
    18:00 +27°C° 0 mm 2 mps 719 mmHg 31%
    19:00 +25°C° 0 mm 2 mps 719 mmHg 35%
    20:00 +24°C° 0 mm 2 mps 719 mmHg 38%
    21:00 +23°C° 0 mm 2 mps 719 mmHg 42%
    22:00 +20°C° 0.4 mm 2 mps 719 mmHg 44%
    23:00 +18°C° 0.4 mm 2 mps 719 mmHg 47%

    Day after tomorrow, 22 June, Friday

    Time Temperature Precipitation Wind Pressure Humidity
    00:00 +17°C° 0.4 mm 2 mps 719 mmHg 49%
    01:00 +17°C° 0 mm 2 mps 719 mmHg 50%
    02:00 +16°C° 0 mm 2 mps 719 mmHg 50%
    03:00 +16°C° 0 mm 1 mps 720 mmHg 51%
    04:00 +18°C° 0 mm 2 mps 720 mmHg 46%
    05:00 +19°C° 0 mm 2 mps 720 mmHg 42%
    06:00 +21°C° 0 mm 2 mps 720 mmHg 37%
    07:00 +23°C° 0 mm 2 mps 720 mmHg 34%
    08:00 +24°C° 0 mm 3 mps 721 mmHg 30%
    09:00 +25°C° 0 mm 3 mps 721 mmHg 26%
    10:00 +26°C° 0 mm 3 mps 721 mmHg 25%
    11:00 +26°C° 0 mm 3 mps 721 mmHg 23%
    12:00 +27°C° 0 mm 3 mps 721 mmHg 22%
    13:00 +27°C° 0 mm 3 mps 721 mmHg 22%
    14:00 +28°C° 0 mm 3 mps 721 mmHg 21%
    15:00 +28°C° 0 mm 3 mps 721 mmHg 21%
    16:00 +28°C° 0 mm 3 mps 721 mmHg 21%
    17:00 +28°C° 0 mm 3 mps 721 mmHg 22%
    18:00 +28°C° 0 mm 3 mps 721 mmHg 22%
    19:00 +26°C° 0 mm 2 mps 721 mmHg 28%
    20:00 +25°C° 0 mm 2 mps 721 mmHg 34%
    21:00 +23°C° 0 mm 1 mps 721 mmHg 39%
    22:00 +21°C° 0 mm 1 mps 721 mmHg 40%
    23:00 +20°C° 0 mm 1 mps 721 mmHg 41%

    23 June, Saturday

    Time Temperature Precipitation Wind Pressure Humidity
    00:00 +16°C° 0 mm 0 mps 721 mmHg 42%
    01:00 +16°C° 0 mm 0 mps 721 mmHg 44%
    02:00 +16°C° 0 mm 0 mps 722 mmHg 45%
    03:00 +17°C° 0 mm 0 mps 722 mmHg 47%
    04:00 +18°C° 0 mm 0 mps 722 mmHg 42%
    05:00 +20°C° 0 mm 0 mps 723 mmHg 38%
    06:00 +22°C° 0 mm 0 mps 723 mmHg 33%
    07:00 +24°C° 0 mm 1 mps 723 mmHg 32%
    08:00 +25°C° 0 mm 1 mps 723 mmHg 31%
    09:00 +26°C° 0 mm 2 mps 723 mmHg 30%
    10:00 +26°C° 0 mm 2 mps 723 mmHg 30%
    11:00 +27°C° 0 mm 3 mps 723 mmHg 29%
    12:00 +27°C° 0 mm 3 mps 723 mmHg 29%
    13:00 +27°C° 0 mm 3 mps 723 mmHg 28%
    14:00 +28°C° 0 mm 4 mps 724 mmHg 28%
    15:00 +28°C° 0 mm 4 mps 724 mmHg 27%
    16:00 +28°C° 0 mm 4 mps 724 mmHg 28%
    17:00 +27°C° 0 mm 4 mps 724 mmHg 29%
    18:00 +27°C° 0 mm 5 mps 724 mmHg 29%
    19:00 +25°C° 0 mm 4 mps 724 mmHg 33%
    20:00 +24°C° 0 mm 3 mps 724 mmHg 37%
    21:00 +21°C° 0 mm 2 mps 724 mmHg 42%
    22:00 +20°C° 0 mm 2 mps 724 mmHg 43%
    23:00 +18°C° 0 mm 2 mps 724 mmHg 44%

    24 June, Sunday

    Time Temperature Precipitation Wind Pressure Humidity
    00:00 +16°C° 0 mm 1 mps 724 mmHg 46%
    01:00 +16°C° 0 mm 1 mps 724 mmHg 47%
    02:00 +16°C° 0 mm 1 mps 725 mmHg 49%
    03:00 +16°C° 0 mm 1 mps 725 mmHg 51%
    04:00 +19°C° 0 mm 1 mps 725 mmHg 46%
    05:00 +20°C° 0 mm 1 mps 725 mmHg 42%
    06:00 +20°C° 0 mm 0 mps 725 mmHg 37%
    07:00 +23°C° 0 mm 1 mps 725 mmHg 35%
    08:00 +25°C° 0 mm 1 mps 725 mmHg 33%
    09:00 +26°C° 0 mm 1 mps 725 mmHg 30%
    10:00 +27°C° 0 mm 1 mps 724 mmHg 30%
    11:00 +27°C° 0 mm 2 mps 724 mmHg 29%
    12:00 +28°C° 0 mm 2 mps 724 mmHg 28%
    13:00 +29°C° 0 mm 2 mps 724 mmHg 28%
    14:00 +29°C° 0 mm 2 mps 723 mmHg 27%
    15:00 +29°C° 0 mm 2 mps 723 mmHg 27%
    16:00 +29°C° 0 mm 2 mps 723 mmHg 29%
    17:00 +28°C° 0 mm 2 mps 722 mmHg 31%
    18:00 +28°C° 0 mm 2 mps 722 mmHg 33%
    19:00 +27°C° 0 mm 2 mps 722 mmHg 38%
    20:00 +25°C° 0 mm 2 mps 721 mmHg 43%
    21:00 +24°C° 0 mm 1 mps 721 mmHg 48%
    22:00 +23°C° 0.1 mm 2 mps 720 mmHg 49%
    23:00 +21°C° 0.1 mm 2 mps 720 mmHg 51%

    25 June, Monday

    Time Temperature Precipitation Wind Pressure Humidity
    00:00 +20°C° 0.1 mm 2 mps 720 mmHg 52%
    01:00 +19°C° 0.1 mm 2 mps 720 mmHg 57%
    02:00 +19°C° 0.1 mm 2 mps 719 mmHg 62%
    03:00 +18°C° 0.1 mm 2 mps 719 mmHg 67%
    04:00 +18°C° 0.2 mm 3 mps 719 mmHg 68%
    05:00 +18°C° 0.2 mm 4 mps 720 mmHg 69%
    06:00 +17°C° 0.2 mm 5 mps 720 mmHg 70%
    07:00 +16°C° 0.2 mm 6 mps 720 mmHg 70%
    08:00 +15°C° 0.2 mm 7 mps 720 mmHg 70%
    09:00 +14°C° 0.2 mm 7 mps 721 mmHg 69%
    10:00 +12°C° 0.1 mm 8 mps 721 mmHg 70%
    11:00 +12°C° 0.1 mm 8 mps 722 mmHg 70%
    12:00 +11°C° 0.1 mm 9 mps 722 mmHg 70%
    13:00 +11°C° 0 mm 9 mps 723 mmHg 70%
    14:00 +11°C° 0 mm 9 mps 723 mmHg 70%
    15:00 +10°C° 0 mm 9 mps 723 mmHg 71%
    16:00 +11°C° 0 mm 8 mps 724 mmHg 66%
    17:00 +12°C° 0 mm 8 mps 724 mmHg 62%
    18:00 +12°C° 0 mm 8 mps 724 mmHg 57%
    19:00 +12°C° 0 mm 8 mps 725 mmHg 55%
    20:00 +12°C° 0 mm 8 mps 725 mmHg 52%
    21:00 +12°C° 0 mm 8 mps 725 mmHg 50%
    22:00 +10°C° 0 mm 8 mps 725 mmHg 51%
    23:00 +9°C° 0 mm 7 mps 725 mmHg 51%
    Show more